Location: Aix-en-Ergny
(50.5839°N, 1.9996°E)
Time: 00:05:50
(UTC+00:00)

ALOS - Pass Details

Date: 23 October 2019
Orbit: 683 x 686 km, 97.8° (Epoch: 20 November)

Event Time Altitude Azimuth Distance (km) Brightness Sun altitude
Rises 05:40:43 0° 12° (NNE) 3,062 5.7 -8.0°
Reaches altitude 10° 05:42:58 10° 12° (NNE) 2,141 4.9 -7.7°
Maximum altitude 05:47:39 79° 287° (WNW) 703 2.2 -7.0°
Drops below altitude 10° 05:52:18 10° 200° (SSW) 2,124 4.7 -6.2°
Sets 05:54:31 0° 200° (SSW) 3,035 5.5 -5.9°
